{"data":{"norad_id":38745,"epoch":"2026-05-24T23:04:39.465696Z","epoch_age_seconds":88542,"freshness":"FRESH","line1":"1 38745U 12044B   26144.96156789  .00031218  56486-5  55311-3 0  9993","line2":"2 38745  49.8223 139.2727 1576812 109.2156 268.5594 12.41648082557925","mean_motion":12.41648082,"eccentricity":0.1576812,"inclination_deg":49.8223,"raan_deg":139.2727,"arg_perigee_deg":109.2156,"mean_anomaly_deg":268.5594,"bstar":0.00055311,"rev_number":55792,"period_min":115.97489021853,"perigee_km":257.44958720843,"apogee_km":2741.7993506826,"semimajor_km":7877.7614689455,"source":"CELESTRAK","updated_at":"2026-05-25T13:37:55.305532Z"}}